This is the latest recevied weather packets stored in our database for station/object KG7KID-7. If no packets are shown the sender has not sent any weather packets the latest 10 day(s).
| Time | Temp. | Humidity | Pressure | Rain* | Wind** | Luminosity | Snow |
|---|---|---|---|---|---|---|---|
| 1777930359 | 22.78° C | 25% | 974.7 hPa | 0 mm | - | - | - |
| 1777930068 | 22.22° C | 27% | 974.7 hPa | 0 mm | - | - | - |
| 1777930059 | 22.78° C | 27% | 974.6 hPa | 0 mm | - | - | - |
| 1777929759 | 22.22° C | 27% | 974.7 hPa | 0 mm | - | - | - |
| 1777929475 | 22.22° C | 29% | 974.7 hPa | 0 mm | - | - | - |
| 1777929158 | 22.22° C | 29% | 974.7 hPa | 0 mm | - | - | - |
| 1777928859 | 22.22° C | 28% | 974.9 hPa | 0 mm | - | - | - |
| 1777928258 | 21.67° C | 29% | 975.1 hPa | 0 mm | - | - | - |
| 1777927461 | 21.11° C | 30% | 975.1 hPa | 0 mm | - | - | - |
| 1777927358 | 21.11° C | 30% | 975.1 hPa | 0 mm | - | - | - |
| 1777926758 | 21.67° C | 30% | 975.2 hPa | 0 mm | - | - | - |
| 1777926159 | 21.11° C | 29% | 975.2 hPa | 0 mm | - | - | - |
| 1777925559 | 21.11° C | 29% | 975.3 hPa | 0 mm | - | - | - |
| 1777925198 | 21.11° C | 29% | 975.3 hPa | 0 mm | - | - | - |
| 1777924898 | 21.11° C | 29% | 975.2 hPa | 0 mm | - | - | - |
| 1777924598 | 21.11° C | 29% | 975.3 hPa | 0 mm | - | - | - |
| 1777924298 | 21.11° C | 29% | 975.2 hPa | 0 mm | - | - | - |
| 1777923998 | 20.56° C | 30% | 976.2 hPa | 0 mm | - | - | - |
| 1777923398 | 20.56° C | 28% | 976.1 hPa | 0 mm | - | - | - |
| 1777922798 | 21.11° C | 30% | 976.3 hPa | 0 mm | - | - | - |
| 1777922199 | 21.11° C | 31% | 976.3 hPa | 0 mm | - | - | - |
| 1777921598 | 20.56° C | 32% | 975.9 hPa | 0 mm | - | - | - |
| 1777920867 | 20° C | 33% | 976.2 hPa | 0 mm | - | - | - |
| 1777920567 | 20° C | 33% | 975.9 hPa | 0 mm | - | - | - |
| 1777919966 | 20.56° C | 33% | 976.3 hPa | 0 mm | - | - | - |
* Rain latest hour (hover to see other rain measurements)
** Current wind speed in m/s (hover to see current wind gust speed)